Weather History for Glasgow, MT

Change the Weather History Date:

Friday, October 10, 2014

  Actual Average Record
Temperature  
Mean Temperature 51 °F 47 °F  
Max Temperature 67 °F 60 °F 92 °F (1955)
Min Temperature 34 °F 35 °F 13 °F (1932)
Degree Days  
Heating Degree Days 14 18  
Month to date heating degree days 162 158  
Since 1 July heating degree days 446 452  
Cooling Degree Days 0 0  
Month to date cooling degree days 0 0  
Year to date cooling degree days 495 532  
Moisture  
Dew Point 32 °F    
Average Humidity 50    
Maximum Humidity 70    
Minimum Humidity 29    
Precipitation  
Precipitation 0.00 in 0.03 in 1.22 in (1998)
Month to date precipitation 0.04 0.31  
Year to date precipitation 13.78 10.42  
Snow  
Snow 0.00 in 0.00 in 0.90 in (1972)
Month to date snowfall 0.0 0.3  
Since 1 July snowfall 0.0 0.5  
Since 1 September snowfall 0.0 0.5  
Snow Depth 0.00 in    
Sea Level Pressure  
Sea Level Pressure 30.11 in    
Wind  
Wind Speed 13 mph (ESE)    
Max Wind Speed 22 mph    
Max Gust Speed 25 mph    
Visibility 10 miles    
Events      
T = Trace of Precipitation, MM = Missing Value Source: NWS Daily Summary

Daily Weather History Graph

Daily Weather History Graph

Search for Another Location

Airport:

Trip Planner

Search our weather history database for the weather conditions in past years. The results will help you decide how hot, cold, wet, or windy it might be!

Date:

Astronomy

Oct. 10, 2014 Rise Set
Actual Time 7:18 AM MDT 6:27 PM MDT
Civil Twilight 6:47 AM MDT 6:58 PM MDT
Nautical Twilight 6:11 AM MDT 7:34 PM MDT
Astronomical Twilight 5:35 AM MDT 8:10 PM MDT
Moon 7:58 PM MDT (10/10) 9:53 AM MDT (10/10)
Length of Visible Light 12h 10m
Length of Day
11h 08m
Waning Gibbous, 93% of the Moon is Illuminated
Oct 10
Waning Gibbous
Oct 15
Last Quarter
Oct 23
New
Oct 30
First Quarter
Nov 6
Full

Hourly Weather History & Observations

Time (MDT) Temp. Windchill Dew Point Humidity Pressure Visibility Wind Dir Wind Speed Gust Speed Precip Events Conditions
12:53 AM 41.0 °F 34.7 °F 27.0 °F 57% 30.25 in 10.0 mi East 10.4 mph - N/A   Clear
1:53 AM 39.9 °F 32.9 °F 28.0 °F 63% 30.24 in 10.0 mi East 11.5 mph - N/A   Clear
2:53 AM 39.2 °F 31.2 °F 28.4 °F 65% 30.20 in 10.0 mi East 13.8 mph - N/A   Clear
3:53 AM 37.9 °F 30.5 °F 27.0 °F 65% 30.22 in 10.0 mi East 11.5 mph - N/A   Clear
4:53 AM 36.0 °F 28.0 °F 27.0 °F 70% 30.22 in 10.0 mi East 11.5 mph - N/A   Clear
5:53 AM 35.1 °F 26.9 °F 27.0 °F 72% 30.22 in 10.0 mi East 11.5 mph - N/A   Clear
6:53 AM 35.1 °F 26.4 °F 27.0 °F 72% 30.22 in 10.0 mi East 12.7 mph - N/A   Clear
7:53 AM 36.0 °F 27.5 °F 27.0 °F 70% 30.22 in 10.0 mi East 12.7 mph - N/A   Clear
8:53 AM 41.0 °F 33.5 °F 30.0 °F 65% 30.22 in 10.0 mi ESE 13.8 mph - N/A   Clear
9:53 AM 46.9 °F - 33.1 °F 59% 30.20 in 10.0 mi ESE 13.8 mph - N/A   Clear
10:53 AM 52.0 °F - 35.1 °F 53% 30.17 in 10.0 mi SE 13.8 mph - N/A   Clear
11:53 AM 55.9 °F - 37.0 °F 49% 30.15 in 10.0 mi SE 12.7 mph - N/A   Clear
12:53 PM 60.1 °F - 37.0 °F 42% 30.13 in 10.0 mi SE 10.4 mph - N/A   Clear
1:53 PM 64.0 °F - 37.0 °F 37% 30.09 in 10.0 mi SSE 15.0 mph 21.9 mph N/A   Clear
2:53 PM 66.0 °F - 35.1 °F 32% 30.06 in 10.0 mi SSE 15.0 mph 24.2 mph N/A   Clear
3:53 PM 66.0 °F - 33.1 °F 29% 30.05 in 10.0 mi SE 16.1 mph - N/A   Clear
4:53 PM 64.9 °F - 32.0 °F 29% 30.03 in 10.0 mi SE 17.3 mph - N/A   Clear
5:53 PM 61.0 °F - 34.0 °F 36% 30.01 in 10.0 mi SE 11.5 mph - N/A   Clear
6:53 PM 53.1 °F - 33.1 °F 47% 30.01 in 10.0 mi ESE 12.7 mph - N/A   Clear
7:53 PM 48.9 °F - 33.1 °F 54% 30.01 in 10.0 mi ESE 12.7 mph - N/A   Clear
8:53 PM 48.9 °F - 33.1 °F 54% 29.99 in 10.0 mi ESE 13.8 mph - N/A   Clear
9:53 PM 48.0 °F - 33.1 °F 56% 29.96 in 10.0 mi ESE 12.7 mph - N/A   Clear
10:53 PM 45.0 °F 39.3 °F 34.0 °F 65% 29.94 in 10.0 mi East 11.5 mph - N/A   Clear
11:53 PM 45.0 °F 39.3 °F 34.0 °F 65% 29.91 in 10.0 mi East 11.5 mph - N/A   Clear